Погода Богородское

Погода Богородское : погода сейчас, прогноз погоды и архив. Всё, что Вы хотите узнать о погоде Богородское!

Поиск расширенной информации на нашем сайте:

Полезная информация: Продаю машину для чистки жалюзи.

Другие новости

Новости СМИ2

Главная страница сайта

Новости сайта

02.10.2013

Напоминаем, что на нашем новом сайте вы можете получить высокодетализированные прогнозы погоды по пунктам России, СНГ и мира (включающие важные для авиации метеовеличины, такие как направление и скорость ветра, видимость, явления погоды, количество и форма облачности, нижняя и верхняя граница облачности), а также ознакомиться с разнообразными материалами по авиационной метеорологии и подборкой полезных ссылок на эту тему.

Сайт Метеоцентр.Азия посвящён разработке технологий оптимизации авиаметеорологического обслуживания, включая проектирование и перспективное создание нескольких автоматизированных авиаметеорологических систем:
- система выпуска высокодетальных прогностических карт явлений погоды для нижнего воздушного пространства по России и ближнему зарубежью;
- система верификации прогнозов TAF (выпускаемых синоптиками официальных АМСГ РФ и ближнего зарубежья) и AUTOTAF (выпускаемых сайтом Метеоцентр.Азия) - выявление ошибок, онлайн-сопоставление с фактической погодой METAR, автоматическое внесение коррективов в прогнозы при резком отклонении фактической погоды от прогноза, подсчёт оправдываемости прогнозов по элементам и в целом;
- система обработки, анализа и отображения авиаметеорологической информации для применения провайдерами метеорологической информации.

Рекомендуем: ЖБИ для обустройства и строительства - плита перекрытия жби on-line на betfor.ru.

Погода Богородское - сегодня

Время (UTC), дата Ветер
(°,м/с) 
Видим.   Явления Облачность Т
(°С)
Тd
(°С)
f(%) Тe
(°С)
Pmin
(гПа)
dP
(гПа)
Po
(мм)
O2
(г/м3)
Тmin Tmax R s Состояние
почвы
15 24.04.17 170 (Ю) 20000 м    10/0 средняя 
[Ac As]
+1.5 -2.4 75 +2  1023.3  764  307           
18 24.04.17 070 (В) 20000 м    10/0 средняя 
[As op]
+0.4 -2.2 83 +1  1023  -0.3  764  308           
21 24.04.17 210 (ЮЗ) 20000 м    10/0 средняя, верхняя 
[Ac trans|Ci sp]
+0.3 -2.1 84 +1  1023.2  0.2  764  308  -0.4        замёрзшая 
00 25.04.17 200 (Ю) 20000 м    3/3 600 м верхняя 
[Cu hum|Ci sp]
+4.7 -1.1 66 +4  1022.2  -0.9  763  303           
03 25.04.17 200 (Ю) 20000 м    8/8 600 м 
[Cu Sc]
+7.3 -1.2 55 +7  1020  -2.2  762  299           
06 25.04.17 180 (Ю) 20000 м    8/6 600 м средняя, верхняя 
[Cu Sc|Ac trans|Ci]
+8.9 -1.6 48 +9  1017.7  -2.2  760  297           
09 25.04.17 100 (В) 20000 м    10/6 600 м средняя 
[Sc|Ac As]
+7.4 -2.1 51 +7  1016.3  -1.3  759  298    +9.8       
12 25.04.17 тихо ()   20000 м    10/10 600 м 
[Sc]
+4.6 -2.9 58 +5  1015.7  -0.7  759  301           
15 25.04.17 350 (С) 20000 м    10/10 600 м 
[Sc]
+4.1 -3.6 57 +5  1013.4  -2.2  757  301           
18 25.04.17 340 (С) 20000 м    10/10 600 м 
[Sc]
+1.8 -4 65 +3  1011.7  -1.8  755  303           
21 25.04.17 060 (СВ) 20000 м    10/6 600 м средняя 
[Sc|Ac lent]
+0.4 -3.4 76 1010.4  -1.3  755  304  +0.1        влажная 
00 26.04.17 020 (С) 20000 м    10/10 600 м 
[Sc]
+1.5 -3.1 71 +2  1009.5  -0.9  754  302           
03 26.04.17 010 (С) 20000 м    10/10 600 м 
[Sc]
+3.7 -1.7 68 +5  1008.6  -0.9  753  300           
06 26.04.17 140 (ЮВ) 20000 м    10/8 600 м средняя 
[Sc|Ac trans]
+5.1 -0.7 66 +6  1007.5  -1.1  752  298           
09 26.04.17 050 (СВ) 20000 м    10/8 600 м средняя 
[Sc|Ac trans]
+5.3 -1.4 62 +6  1006.9  -0.6  752  297    +5.9       
12 26.04.17 тихо ()   20000 м    10/10 600 м 
[Sc]
+3.5 -1.7 69 +4  1007.2  0.2  752  299           
15 26.04.17 020 (С) 20000 м    3/3 600 м 
[Sc]
+0.5 -2 83 +1  1005.9  -1.3  751  302           
18 26.04.17 тихо ()   20000 м    10/10 600 м 
[Sc]
+0.4 -1.5 87 1004.8  -1.1  750  302           
21 26.04.17 330 (СЗ) 20000 м    10/10 600 м 
[Sc]
+1 -1.1 86 +2  1003.7  -1  750  301  +0.3        влажная 
00 27.04.17 030 (СВ) 20000 м    10/6 600 м средняя 
[Sc|Ac trans]
+4.6 -0.8 68 +3  1002.4  -1.3  749  297           
03 27.04.17 350 (С) 20000 м    9/5 600 м средняя, верхняя 
[Sc|Ac trans|Cc]
+7.6 -0.7 56 +8  1000.8  -1.5  747  293           
06 27.04.17 350 (С) 20000 м    9/5 600 м средняя, верхняя 
[Sc|Ac lent|Ci fib]
+8.9 -1.2 49 +8  999.7  -1.2  747  291           
09 27.04.17 080 (В) 20000 м    9/6 600 м средняя, верхняя 
[Sc|Ac trans|Ci fib]
+6.1 -7.1 38 +6  999.6  0.1  747  295    +9.3       
12 27.04.17 330 (СЗ) 20000 м    8/4 600 м средняя 
[Sc|Ac trans]
+2.6 -6.2 52 +3  1000.1  0.4  747  299           
15 27.04.17 040 (СВ) 20000 м    8/3 600 м средняя 
[Sc|Ac trans]
+1.8 -5.3 59 +3  999.6  -0.5  746  299           
Время (UTC), дата Ветер
(°,м/с) 
Видим.   Явления Облачность Т
(°С)
Тd
(°С)
f(%) Тe
(°С)
Pmin
(гПа)
dP
(гПа)
Po
(мм)
O2
(г/м3)
Тmin Tmax R s Состояние
почвы

Для получения пояснительной информации подведите курсор к названию столбца.

ПОГОДА Богородское - архив

Всё, что Вы хотите узнать о погоде Богородское - удобно и подробно!

Выберите нужную дату (начиная с 1 января 2015* года) и нажмите кнопку "Найти".
Будут отображены архивные сводки погоды по пункту Богородское, начиная с указанной даты.


Отображать данные в формате CSV (для использования в таблицах Excel)


Внимание! Наш архив погоды предназначен исключительно для личного некоммерческого использования в познавательных целях. Если Вам необходимы официальные справки о состоянии погоды (для производственных, юридических, коммерческих и т.п. целей), обращайтесь в органы Росгидромета.

*Примечание: данная дата относится к архиву по метеостанциям СССР (Россия, СНГ, Балтия).
Архив по метеостанциям Зарубежной Европы и Азии (кроме Китая) хранится 10 дней, по другим регионам земного шара (Китай, Африка, Америка, Австралия, Океания) - 1 день.

Богородское - район местоположения метеостанции


Название, широта, долгота, высота метеостанции:
Богородское 52.4°ш. 140.5°д. 35 м над ур. моря [Российская Федерация]

Дополнительная информация

В oтличие oт бoльшинства пoгoдных сайтoв мы публикуем пoдрoбную метеoинфoрмацию в детальнoм прoфессиoнальнoм фoрмате.

Характеристики температуры и влажнoсти вoздуха измеряются на высoте 2 м в тени вдали oт зданий и деревьев.
Скoрoсть ветра измеряется на высoте 10 м (на урoвне рoста челoвека скoрoсть ветра ниже в 1.5-2 раза). Если метеoстанция нахoдится в гoрoде или в лесу, тo скoрoсть ветра занижена на 2-4 м/с пo сравнению с oткрытым местoм. Скoрoсть ветра над акватoриями крупных рек и oзёр, а также на вершинах хoлмoв на 2-5 м/с выше, чем в oбычных услoвиях.
Атмoсфернoе давление в разных тoчках местнoсти мoжет значительнo oтличаться oт давления на метеoстанции, в зависимoсти oт услoвий рельефа (при пoдъёме на 10 м давление пoнижается примернo на 1 мм рт.ст.).